Regional Weather Roundup
Issued by NWS Little Rock, AR

Home | Current Version | Previous Version | Text Only | Print | Product List | Glossary Off
Versions: 1 2 3 4 5 6 7 8 9 10 11 12 13 14 15 16 17 18 19 20 21 22 23 24 25 26 27 28 29 30 31 32 33 34 35 36 37 38 39 40 41 42 43 44 45 46 47 48 49 50

000
ASUS44 KLZK 272305
RWRLZK

WEATHER ROUNDUP FOR ARKANSAS
NATIONAL WEATHER SERVICE LITTLE ROCK AR
600 PM CDT THU AUG 27 2015

NOTE: "FAIR" INDICATES FEW OR NO CLOUDS BELOW 12,000 FEET WITH NO
SIGNIFICANT WEATHER AND/OR OBSTRUCTIONS TO VISIBILITY.

ARZ001-003-010-029-280000-
NORTHWEST ARKANSAS

CITY           SKY/WX    TMP DP  RH WIND       PRES   REMARKS
FAYETTEVILLE   SUNNY     79  67  66 SE5       30.07R
FORT SMITH     PTSUNNY   81  63  54 E5        30.04S
BENTONVILLE    MOSUNNY   81  64  57 E6        30.07S
ROGERS         PTSUNNY   80  67  64 E8        30.07F
SILOAM SPGS    SUNNY     81  63  54 S5        30.06R
HIGHFILL       MOSUNNY   81  66  60 E6        30.06S
SPRINGDALE     MOSUNNY   81  66  61 E9        30.09S
$$

ARZ004-005-016-280000-
NORTH CENTRAL ARKANSAS

CITY           SKY/WX    TMP DP  RH WIND       PRES   REMARKS
BATESVILLE     MOSUNNY   81  61  50 E9        30.07S
FLIPPIN        PTSUNNY   79  57  47 E5        30.07F
MTN HOME       PTSUNNY   76  62  62 NE3       30.08S
$$

ARZ040-041-280000-
WEST CENTRAL ARKANSAS

CITY           SKY/WX    TMP DP  RH WIND       PRES   REMARKS
MENA           PTSUNNY   82  64  54 E5        30.06F
MOUNT IDA      PTSUNNY   81  63  54 CALM      30.04S
$$

ARZ009-017-025-026-028-280000-
NORTHEAST ARKANSAS

CITY           SKY/WX    TMP DP  RH WIND       PRES   REMARKS
JONESBORO      PTSUNNY   78  60  53 E8        30.06F
NEWPORT        PTSUNNY   77  63  61 E6        30.08F
WALNUT RIDGE   PTSUNNY   79  55  44 NE7       30.08R
BLYTHEVILLE    SUNNY     80  60  50 NE7       30.06F
$$

ARZ022-023-033-042-044-280000-
CENTRAL ARKANSAS

CITY           SKY/WX    TMP DP  RH WIND       PRES   REMARKS
LITTLE ROCK    CLOUDY    83  58  42 E13       30.04F
N LITTLE ROCK  CLOUDY    82  62  49 E12       30.04F
JACKSONVILLE   PTSUNNY   82  59  46 E9        30.05S
SEARCY         MOSUNNY   79  62  56 E10       30.07F
HOT SPRINGS    PTSUNNY   83  61  47 E5        30.04F
RUSSELLVILLE   MOSUNNY   82  63  52 CALM      30.04F
$$

ARZ036-280000-
EAST ARKANSAS

CITY           SKY/WX    TMP DP  RH WIND       PRES   REMARKS
WEST MEMPHIS   SUNNY     80  59  48 NE7       30.05F
$$

ARZ050-053-066-070-073-280000-
SOUTHWEST ARKANSAS

CITY           SKY/WX    TMP DP  RH WIND       PRES   REMARKS
ARKADELPHIA    FAIR      85  64  49 E5        30.03F HX  86
CAMDEN         MOSUNNY   82  61  47 NE7       30.03S
TEXARKANA      PTSUNNY   84  61  45 NE5       30.03S
EL DORADO      MOSUNNY   83  62  49 N7        30.04S
DE QUEEN       CLOUDY    83  63  50 SE6       30.02F
$$

ARZ056-057-069-280000-
SOUTHEAST ARKANSAS

CITY           SKY/WX    TMP DP  RH WIND       PRES   REMARKS
PINE BLUFF     MOSUNNY   78  61  55 NE5       30.05F
STUTTGART      MOSUNNY   79  57  47 N10       30.06F
MONTICELLO     MOSUNNY   82  58  43 NE6       30.04S

$$





USA.gov is the U.S. government's official web portal to all federal, state and local government web resources and services.